Погода в Тангалле

Шри-Ланка     6°01′38″N   80°47′41″E
темп.,
°C
ветер,
м/с
пор.,
м/с
влажн.,
%
обл.,
%
осадки,
мм/ч
давл.,
гПа
погр.,
м
12 апреля, пн
пн1223:30+25сз118799 2.9 1013109
02:30+24с118897 0.6 101193
05:30+24с118813 1.0 101199
08:30+27св22755 0.0 1014385
11:30+30юв336223 0.0 10131102
14:30+30ююв436196 0.0 1009940
17:30+28ююв236941 0.3 1010573
20:30+27юв127588 0.4 1012300
13 апреля, вт
вт1323:30+26св1180100 1.0 1012273
02:30+25с1186100 1.1 1010201
05:30+24с128870 1.1 1011131
08:30+28св1275100 0.0 1013355
11:30+30юв336312 0.0 10121048
14:30+31юв43615 0.0 1009900
17:30+29ююв226942 0.1 1009600
20:30+27ююз117463 0.1 1012367
14 апреля, ср
ср1423:30+27юз117679 0.1 1012345
02:30+27ююз117690 0.2 1010316
05:30+26ю127836 0.4 1010359
08:30+29ююв116450 0.0 1013916
11:30+30ююв436194 0.1 10121087
14:30+30ю336297 0.3 1009957
17:30+29юз336767 0.4 1009888
20:30+27юз127766 0.1 1011272
15 апреля, чт
чт1523:30+26зюз228018 0.3 1012298
02:30+25з228447 0.0 1010296
05:30+25з228850 0.6 1011249
08:30+28з12765 0.9 1013493
11:30+30ююз446832 1.3 1011908
14:30+30юз556599 0.3 10081047
17:30+28юз467598 0.7 1009468
20:30+26зюз3580100 0.0 1011350
16 апреля, пт
пт1623:30+26з348313 0.1 1011316
02:30+25з3387100 0.6 1009331
05:30+24з2388100 0.6 1010310
08:30+28з237645 0.3 1013487
11:30+31ююз435883 0.3 10111302
14:30+30юз4562100 0.6 1009988
17:30+27зюз4678100 1.3 1010534
20:30+26з3585100 0.0 1011333